Ladd AAF Airfield Fairbanks/Ft Wainwright US
ICAO: PAFB
IATA:
Category: Medium
Scheduled Services:

Elevation: 454 ft
TransAlt. 18000 ft.

Airport Communications:
FAIRBANKS APP:125.35
ATIS:134.25
CTAF:125
FAIRBANKS DEP:125.35
FAIRBANKS RDO:25.54
GND:121.7
MEDIVAC OPS:142.35
BASE OPS:118.9
PMSV METRO:128.8
TWR:125

PAFB Zoom In..

If you have problems with the map follow the link
https://www.worldairports.se/pages/airport.php?
ICAO=PAFB

Runways:

(A) RW 07L length 8575 ft width 150 ft
---- / hdg 68

(B) RW 07R length 7280 ft width 75 ft
---- / hdg 68

(C) RW 25L length 7280 ft width 75 ft
---- / hdg 248

(D) RW 25R length 8575 ft width 150 ft
---- / hdg 248

Location; PAFB
Day. 22 / Time. 09.58 Zulu
* Altimeter: 29.65
* Temperature: -25° c. 13°f.
* Wind from: 000° Speed 00 kn.
Dewpoint: -27° c.
Visibility: 10 Statute Miles.
Clouds: Clear (automated report).

PAFB 220958Z AUTO 00000KT 10SM CLR M25/M27 A2965 RMK AO2 SNE24 SLP062 P0000 T12491274


Wind - Calm.

 
 
jpsmedia worldairports.se 2020   terms of use